Dades meteomassalio
Diari Summary for Agost 7, 2017 Units:  English    Metric   Both
« Previous Day
Next Day »
Diari Semanal Mensual Anual Personalitzat
  Maxima: Minima: Mijana:
Temperatura: TemperatureC °F 20.1 °F 27.7 °F
Rosada: DewpointC °F 17.1 °F 19.4 °F
Humitat: Humidity % 40 % 62 %
Velocitat del vent: WindSpeedKMH mph 0.0 mph 11.2 mph
Racha vent: WindSpeedGustKMH mph - -
Vent:- - ESE
Pressio: PressurehPa in 1006.7 in -
Pluja: 0.0 in    
Historical Graphs
 
 
Tabular Data for Agost 7, 2017
Time Temperature Dew Point Pressure Wind Wind Speed Wind Gust Humidity Rainfall Rate (Hourly) solar Conditions
TemperatureC °F DewpointC °F PressurehPa in Calm     Humidity % HourlyPrecipMM in SolarRadiationWatts/m^2 W/m2 Conditions
00:01 25.5 °F 19.2 °F 1015.1 in Calm     68 % 0.0 in 0.0 W/m2 CLR
00:06 25.5 °F 19.2 °F 1015.5 in Calm     68 % 0.0 in 0.0 W/m2 CLR
00:11 25.5 °F 19.2 °F 1015.1 in Calm     68 % 0.0 in 0.0 W/m2 CLR
00:16 25.5 °F 19.2 °F 1014.8 in ESE 9.3 mph 9.3 mph 68 % 0.0 in 0.0 W/m2 CLR
00:21 25.4 °F 19.1 °F 1015.1 in SE 5.6 mph 5.6 mph 68 % 0.0 in 0.0 W/m2 CLR
00:26 25.4 °F 19.1 °F 1015.1 in Calm     68 % 0.0 in 0.0 W/m2 CLR
00:31 25.3 °F 19.2 °F 1015.1 in Calm     69 % 0.0 in 0.0 W/m2 CLR
00:36 25.3 °F 19.2 °F 1015.1 in SE 5.6 mph 5.6 mph 69 % 0.0 in 0.0 W/m2 CLR
00:41 25.3 °F 19.0 °F 1015.1 in SE 8.0 mph 8.0 mph 68 % 0.0 in 0.0 W/m2 CLR
00:46 25.3 °F 19.0 °F 1015.1 in SSE 7.4 mph 7.4 mph 68 % 0.0 in 0.0 W/m2 CLR
00:51 25.3 °F 19.2 °F 1014.8 in South 5.6 mph 5.6 mph 69 % 0.0 in 0.0 W/m2 CLR
00:56 25.3 °F 19.2 °F 1015.1 in Calm     69 % 0.0 in 0.0 W/m2 CLR
01:01 25.2 °F 19.1 °F 1015.1 in SE 9.3 mph 9.3 mph 69 % 0.0 in 0.0 W/m2 CLR
01:06 25.2 °F 19.1 °F 1015.1 in Calm     69 % 0.0 in 0.0 W/m2 CLR
01:11 25.1 °F 19.0 °F 1015.1 in Calm     69 % 0.0 in 0.0 W/m2 CLR
01:16 25.1 °F 19.0 °F 1015.1 in Calm     69 % 0.0 in 0.0 W/m2 CLR
01:21 25.1 °F 19.2 °F 1015.1 in Calm     70 % 0.0 in 0.0 W/m2 CLR
01:26 25.0 °F 19.2 °F 1015.1 in SSE 7.4 mph 7.4 mph 70 % 0.0 in 0.0 W/m2 CLR
01:31 25.0 °F 19.2 °F 1015.1 in Calm     70 % 0.0 in 0.0 W/m2 CLR
01:36 24.9 °F 19.1 °F 1015.1 in Calm     70 % 0.0 in 0.0 W/m2 CLR
01:41 24.9 °F 19.1 °F 1015.1 in Calm     70 % 0.0 in 0.0 W/m2 CLR
01:46 24.9 °F 19.1 °F 1015.1 in Calm     70 % 0.0 in 0.0 W/m2 CLR
01:51 24.8 °F 19.0 °F 1015.1 in Calm     70 % 0.0 in 0.0 W/m2 CLR
01:56 24.8 °F 19.2 °F 1015.1 in Calm     71 % 0.0 in 0.0 W/m2 CLR
02:01 24.7 °F 19.1 °F 1015.1 in Calm     71 % 0.0 in 0.0 W/m2 CLR
02:06 24.7 °F 19.1 °F 1015.1 in Calm     71 % 0.0 in 0.0 W/m2 CLR
02:11 24.6 °F 18.9 °F 1014.8 in Calm     71 % 0.0 in 0.0 W/m2 CLR
02:16 24.4 °F 19.1 °F 1015.1 in Calm     72 % 0.0 in 0.0 W/m2 CLR
02:17 24.4 °F 19.0 °F 1015.1 in Calm     72 % 0.0 in 0.0 W/m2 CLR
02:22 24.3 °F 18.9 °F 1014.8 in Calm     72 % 0.0 in 0.0 W/m2 CLR
02:32 24.2 °F 19.0 °F 1014.8 in Calm     73 % 0.0 in 0.0 W/m2 CLR
02:37 24.1 °F 18.9 °F 1014.8 in Calm     73 % 0.0 in 0.0 W/m2 CLR
02:42 24.0 °F 18.8 °F 1014.8 in Calm     73 % 0.0 in 0.0 W/m2 CLR
02:47 23.8 °F 18.9 °F 1014.8 in Calm     74 % 0.0 in 0.0 W/m2 CLR
02:57 23.6 °F 18.9 °F 1014.8 in Calm     75 % 0.0 in 0.0 W/m2 CLR
03:02 23.5 °F 18.8 °F 1014.8 in Calm     75 % 0.0 in 0.0 W/m2 CLR
03:07 23.4 °F 18.7 °F 1014.8 in Calm     75 % 0.0 in 0.0 W/m2 CLR
03:12 23.4 °F 18.7 °F 1014.8 in Calm     75 % 0.0 in 0.0 W/m2 CLR
03:17 23.4 °F 18.7 °F 1014.8 in Calm     75 % 0.0 in 0.0 W/m2 CLR
03:22 23.3 °F 18.7 °F 1014.8 in Calm     75 % 0.0 in 0.0 W/m2 CLR
03:27 23.3 °F 18.8 °F 1014.4 in Calm     76 % 0.0 in 0.0 W/m2 CLR
03:32 23.3 °F 18.8 °F 1014.8 in Calm     76 % 0.0 in 0.0 W/m2 CLR
03:37 23.2 °F 18.8 °F 1014.8 in Calm     76 % 0.0 in 0.0 W/m2 CLR
03:42 23.2 °F 18.7 °F 1014.4 in Calm     76 % 0.0 in 0.0 W/m2 CLR
03:47 23.1 °F 18.7 °F 1014.4 in Calm     76 % 0.0 in 0.0 W/m2 CLR
03:52 23.0 °F 18.6 °F 1014.4 in Calm     76 % 0.0 in 0.0 W/m2 CLR
03:57 22.9 °F 18.4 °F 1014.4 in Calm     76 % 0.0 in 0.0 W/m2 CLR
04:02 22.8 °F 18.6 °F 1014.4 in Calm     77 % 0.0 in 0.0 W/m2 CLR
04:07 22.7 °F 18.7 °F 1014.4 in Calm     78 % 0.0 in 0.0 W/m2 CLR
04:12 22.6 °F 18.4 °F 1014.4 in Calm     77 % 0.0 in 0.0 W/m2 CLR
04:17 22.5 °F 18.3 °F 1014.4 in Calm     77 % 0.0 in 0.0 W/m2 CLR
04:22 22.3 °F 18.1 °F 1014.1 in Calm     77 % 0.0 in 0.0 W/m2 CLR
04:27 22.2 °F 18.0 °F 1014.1 in Calm     77 % 0.0 in 0.0 W/m2 CLR
04:32 22.2 °F 17.9 °F 1014.4 in Calm     77 % 0.0 in 0.0 W/m2 CLR
04:37 22.1 °F 18.1 °F 1014.1 in Calm     78 % 0.0 in 0.0 W/m2 CLR
04:42 21.9 °F 17.9 °F 1014.1 in Calm     78 % 0.0 in 0.0 W/m2 CLR
04:47 21.9 °F 17.9 °F 1014.1 in Calm     78 % 0.0 in 0.0 W/m2 CLR
04:57 21.7 °F 17.7 °F 1014.1 in Calm     78 % 0.0 in 0.0 W/m2 CLR
05:02 21.6 °F 17.8 °F 1014.1 in Calm     79 % 0.0 in 0.0 W/m2 CLR
05:07 21.5 °F 17.7 °F 1014.1 in Calm     79 % 0.0 in 0.0 W/m2 CLR
05:09 21.5 °F 17.7 °F 1014.1 in Calm     79 % 0.0 in 0.0 W/m2 CLR
05:14 21.4 °F 17.8 °F 1014.1 in Calm     80 % 0.0 in 0.0 W/m2 CLR
05:19 21.4 °F 17.8 °F 1014.1 in Calm     80 % 0.0 in 0.0 W/m2 CLR
05:20 21.3 °F 17.7 °F 1014.1 in Calm     80 % 0.0 in 0.0 W/m2 CLR
05:25 21.2 °F 17.6 °F 1014.1 in Calm     80 % 0.0 in 0.0 W/m2 CLR
05:29 21.2 °F 17.8 °F 1014.1 in Calm     81 % 0.0 in 0.0 W/m2 CLR
05:30 21.2 °F 17.6 °F 1014.1 in Calm     80 % 0.0 in 0.0 W/m2 CLR
05:35 21.1 °F 17.7 °F 1014.1 in Calm     81 % 0.0 in 0.0 W/m2 CLR
05:40 21.1 °F 17.9 °F 1013.8 in Calm     82 % 0.0 in 0.0 W/m2 CLR
05:45 21.1 °F 17.7 °F 1013.8 in Calm     81 % 0.0 in 0.0 W/m2 CLR
05:50 20.9 °F 17.6 °F 1013.8 in Calm     81 % 0.0 in 0.0 W/m2 CLR
05:56 20.9 °F 17.5 °F 1013.8 in Calm     81 % 0.0 in 0.0 W/m2 CLR
06:01 20.8 °F 17.4 °F 1013.8 in Calm     81 % 0.0 in 0.0 W/m2 CLR
06:06 20.8 °F 17.6 °F 1013.8 in Calm     82 % 0.0 in 0.0 W/m2 CLR
06:11 20.8 °F 17.6 °F 1014.1 in Calm     82 % 0.0 in 0.0 W/m2 CLR
06:16 20.7 °F 17.3 °F 1014.1 in Calm     81 % 0.0 in 0.0 W/m2 CLR
06:21 20.6 °F 17.4 °F 1014.1 in Calm     82 % 0.0 in 0.0 W/m2 CLR
06:26 20.5 °F 17.3 °F 1014.1 in Calm     82 % 0.0 in 0.0 W/m2 CLR
06:31 20.4 °F 17.3 °F 1014.1 in Calm     82 % 0.0 in 0.0 W/m2 CLR
06:36 20.4 °F 17.2 °F 1014.1 in Calm     82 % 0.0 in 0.0 W/m2 CLR
06:41 20.3 °F 17.2 °F 1014.1 in Calm     82 % 0.0 in 0.0 W/m2 CLR
06:46 20.3 °F 17.2 °F 1014.1 in Calm     82 % 0.0 in 0.0 W/m2 CLR
06:51 20.3 °F 17.3 °F 1014.1 in Calm     83 % 0.0 in 0.0 W/m2 CLR
06:56 20.3 °F 17.3 °F 1014.1 in Calm     83 % 0.0 in 0.0 W/m2 CLR
07:01 20.3 °F 17.3 °F 1014.1 in Calm     83 % 0.0 in 0.0 W/m2 OVC
07:06 20.2 °F 17.2 °F 1014.1 in Calm     83 % 0.0 in 5.0 W/m2 OVC
07:11 20.2 °F 17.2 °F 1014.1 in Calm     83 % 0.0 in 9.0 W/m2 BKN
07:16 20.1 °F 17.1 °F 1014.1 in Calm     83 % 0.0 in 12.0 W/m2 BKN
07:21 20.1 °F 17.1 °F 1014.4 in Calm     83 % 0.0 in 16.0 W/m2 BKN
07:26 20.1 °F 17.3 °F 1014.4 in Calm     84 % 0.0 in 19.0 W/m2 BKN
07:31 20.2 °F 17.4 °F 1014.4 in Calm     84 % 0.0 in 25.0 W/m2 BKN
07:36 20.3 °F 17.3 °F 1014.4 in Calm     83 % 0.0 in 32.0 W/m2 BKN
07:41 20.5 °F 17.5 °F 1014.4 in Calm     83 % 0.0 in 39.0 W/m2 BKN
07:46 20.7 °F 17.7 °F 1014.4 in Calm     83 % 0.0 in 42.0 W/m2 BKN
07:51 20.9 °F 17.7 °F 1014.4 in Calm     82 % 0.0 in 58.0 W/m2 SCT
07:56 21.1 °F 17.9 °F 1014.4 in Calm     82 % 0.0 in 70.0 W/m2 FEW
08:01 21.3 °F 17.9 °F 1014.4 in Calm     81 % 0.0 in 83.0 W/m2 FEW
08:06 21.4 °F 17.8 °F 1014.4 in Calm     80 % 0.0 in 95.0 W/m2 FEW
08:11 21.6 °F 18.0 °F 1014.4 in Calm     80 % 0.0 in 109.0 W/m2 CLR
08:16 21.8 °F 18.0 °F 1014.4 in Calm     79 % 0.0 in 127.0 W/m2 CLR
08:21 21.9 °F 17.9 °F 1014.4 in Calm     78 % 0.0 in 142.0 W/m2 CLR
08:26 22.2 °F 18.0 °F 1014.4 in Calm     77 % 0.0 in 156.0 W/m2 CLR
08:31 22.4 °F 18.0 °F 1014.4 in WSW 5.6 mph 5.6 mph 76 % 0.0 in 174.0 W/m2 CLR
08:36 22.6 °F 17.9 °F 1014.4 in SW 5.6 mph 5.6 mph 75 % 0.0 in 186.0 W/m2 CLR
08:41 22.8 °F 17.9 °F 1014.4 in Calm     74 % 0.0 in 206.0 W/m2 CLR
08:46 23.1 °F 18.2 °F 1014.4 in Calm     74 % 0.0 in 221.0 W/m2 CLR
08:51 23.4 °F 18.3 °F 1014.4 in Calm     73 % 0.0 in 237.0 W/m2 CLR
08:56 23.8 °F 18.3 °F 1014.4 in Calm     71 % 0.0 in 250.0 W/m2 CLR
09:01 24.1 °F 18.5 °F 1014.4 in Calm     71 % 0.0 in 267.0 W/m2 CLR
09:06 24.4 °F 18.6 °F 1014.1 in Calm     70 % 0.0 in 285.0 W/m2 CLR
09:11 24.7 °F 18.8 °F 1014.1 in Calm     70 % 0.0 in 301.0 W/m2 CLR
09:12 24.7 °F 18.9 °F 1014.1 in Calm     70 % 0.0 in 304.0 W/m2 CLR
09:17 25.2 °F 19.1 °F 1014.1 in Calm     69 % 0.0 in 318.0 W/m2 CLR
09:23 25.4 °F 19.1 °F 1014.1 in Calm     68 % 0.0 in 338.0 W/m2 CLR
09:28 25.5 °F 19.2 °F 1014.1 in Calm     68 % 0.0 in 352.0 W/m2 CLR
09:33 25.9 °F 19.6 °F 1014.1 in Calm     68 % 0.0 in 366.0 W/m2 CLR
09:38 26.2 °F 19.6 °F 1013.8 in Calm     67 % 0.0 in 181.0 W/m2 CLR
09:43 26.6 °F 19.7 °F 1013.8 in Calm     66 % 0.0 in 186.0 W/m2 CLR
09:48 26.8 °F 19.7 °F 1013.8 in Calm     65 % 0.0 in 415.0 W/m2 CLR
09:53 27.2 °F 19.8 °F 1013.8 in Calm     64 % 0.0 in 429.0 W/m2 CLR
09:58 27.7 °F 19.7 °F 1013.8 in Calm     62 % 0.0 in 443.0 W/m2 CLR
10:03 27.8 °F 19.9 °F 1013.8 in Calm     62 % 0.0 in 461.0 W/m2 CLR
10:08 28.0 °F 20.1 °F 1013.4 in ENE 5.6 mph 5.6 mph 62 % 0.0 in 476.0 W/m2 CLR
10:13 28.0 °F 20.1 °F 1013.4 in ENE 6.4 mph 6.4 mph 62 % 0.0 in 492.0 W/m2 CLR
10:18 28.1 °F 20.1 °F 1013.4 in ENE 7.4 mph 7.4 mph 62 % 0.0 in 506.0 W/m2 CLR
10:23 28.3 °F 20.3 °F 1013.4 in NNE 7.4 mph 7.4 mph 62 % 0.0 in 519.0 W/m2 CLR
10:28 28.5 °F 20.0 °F 1013.4 in ENE 1.9 mph   60 % 0.0 in 534.0 W/m2 CLR
10:33 28.5 °F 20.0 °F 1013.1 in NE 11.3 mph 11.3 mph 60 % 0.0 in 548.0 W/m2 CLR
10:38 28.5 °F 20.2 °F 1013.1 in NNE 7.4 mph 7.4 mph 61 % 0.0 in 561.0 W/m2 CLR
10:43 28.8 °F 20.3 °F 1013.1 in NE 3.7 mph 3.7 mph 60 % 0.0 in 578.0 W/m2 CLR
10:48 29.2 °F 20.4 °F 1013.1 in NE 14.8 mph 14.8 mph 59 % 0.0 in 592.0 W/m2 CLR
10:53 29.3 °F 20.2 °F 1013.1 in ENE 14.5 mph 14.5 mph 58 % 0.0 in 605.0 W/m2 CLR
10:58 29.3 °F 20.2 °F 1013.1 in NE 13.0 mph 13.0 mph 58 % 0.0 in 615.0 W/m2 CLR
11:03 29.6 °F 20.1 °F 1013.1 in ENE 11.1 mph 11.1 mph 57 % 0.0 in 628.0 W/m2 CLR
11:08 29.6 °F 19.3 °F 1013.1 in SE 7.4 mph 7.4 mph 54 % 0.0 in 640.0 W/m2 CLR
11:13 29.5 °F 19.8 °F 1013.1 in ESE 6.4 mph 6.4 mph 56 % 0.0 in 652.0 W/m2 CLR
11:18 29.7 °F 20.0 °F 1013.1 in ENE 3.7 mph 3.7 mph 56 % 0.0 in 668.0 W/m2 CLR
11:23 29.9 °F 19.9 °F 1013.1 in Calm     55 % 0.0 in 675.0 W/m2 CLR
11:28 30.4 °F 20.1 °F 1012.8 in Calm     54 % 0.0 in 686.0 W/m2 CLR
11:33 30.7 °F 20.3 °F 1012.8 in ENE 5.6 mph 5.6 mph 54 % 0.0 in 696.0 W/m2 CLR
11:38 30.9 °F 20.2 °F 1012.8 in ENE 11.1 mph 11.1 mph 53 % 0.0 in 712.0 W/m2 CLR
11:43 30.9 °F 19.9 °F 1012.8 in NE 9.3 mph 9.3 mph 52 % 0.0 in 719.0 W/m2 CLR
11:48 31.2 °F 19.2 °F 1012.8 in SE 9.3 mph 9.3 mph 49 % 0.0 in 733.0 W/m2 CLR
11:53 30.9 °F 18.6 °F 1012.8 in Calm     48 % 0.0 in 742.0 W/m2 CLR
11:58 31.1 °F 19.7 °F 1012.8 in Calm     51 % 0.0 in 738.0 W/m2 CLR
12:03 31.2 °F 19.6 °F 1012.8 in East 11.1 mph 11.1 mph 50 % 0.0 in 752.0 W/m2 CLR
12:08 31.5 °F 19.8 °F 1012.8 in NE 13.0 mph 13.0 mph 50 % 0.0 in 765.0 W/m2 CLR
12:13 31.6 °F 19.6 °F 1012.8 in ESE 3.7 mph 3.7 mph 49 % 0.0 in 779.0 W/m2 CLR
12:18 31.9 °F 19.9 °F 1012.8 in Calm     49 % 0.0 in 788.0 W/m2 CLR
12:23 32.2 °F 19.8 °F 1012.4 in NE 11.1 mph 11.1 mph 48 % 0.0 in 793.0 W/m2 CLR
12:28 32.4 °F 19.3 °F 1012.4 in NE 4.8 mph 4.8 mph 46 % 0.0 in 800.0 W/m2 CLR
12:33 32.3 °F 18.9 °F 1012.4 in Calm     45 % 0.0 in 810.0 W/m2 CLR
12:38 32.2 °F 18.8 °F 1012.4 in ENE 9.3 mph 9.3 mph 45 % 0.0 in 817.0 W/m2 CLR
12:43 32.6 °F 18.4 °F 1012.4 in ENE 12.9 mph 12.9 mph 43 % 0.0 in 824.0 W/m2 CLR
12:48 32.7 °F 18.5 °F 1012.1 in Calm     43 % 0.0 in 831.0 W/m2 CLR
12:53 33.2 °F 18.2 °F 1012.1 in East 9.3 mph 9.3 mph 41 % 0.0 in 837.0 W/m2 CLR
12:58 33.4 °F 17.9 °F 1012.1 in ENE 9.3 mph 9.3 mph 40 % 0.0 in 840.0 W/m2 CLR
13:03 33.4 °F 19.2 °F 1011.7 in ENE 13.0 mph 13.0 mph 43 % 0.0 in 846.0 W/m2 CLR
13:08 33.5 °F 18.8 °F 1011.7 in ENE 11.1 mph 11.1 mph 42 % 0.0 in 853.0 W/m2 CLR
13:13 33.7 °F 19.0 °F 1011.7 in East 9.3 mph 9.3 mph 42 % 0.0 in 858.0 W/m2 CLR
13:18 33.9 °F 19.6 °F 1011.7 in ENE 11.3 mph 11.3 mph 43 % 0.0 in 856.0 W/m2 CLR
13:23 33.9 °F 19.6 °F 1011.4 in East 5.6 mph 5.6 mph 43 % 0.0 in 870.0 W/m2 CLR
13:28 33.8 °F 19.5 °F 1011.4 in ENE 8.0 mph 8.0 mph 43 % 0.0 in 865.0 W/m2 CLR
13:33 33.6 °F 19.6 °F 1011.4 in East 20.4 mph 20.4 mph 44 % 0.0 in 863.0 W/m2 CLR
13:38 33.5 °F 19.9 °F 1011.1 in East 13.0 mph 13.0 mph 45 % 0.0 in 877.0 W/m2 CLR
13:43 33.3 °F 19.7 °F 1011.1 in East 16.7 mph 16.7 mph 45 % 0.0 in 900.0 W/m2 CLR
13:44 33.2 °F 19.7 °F 1011.1 in ENE 13.0 mph 13.0 mph 45 % 0.0 in 904.0 W/m2 CLR
13:49 33.1 °F 19.9 °F 1011.1 in ENE 16.7 mph 16.7 mph 46 % 0.0 in 874.0 W/m2 CLR
13:54 33.1 °F 20.2 °F 1011.1 in ESE 20.9 mph 20.9 mph 47 % 0.0 in 255.0 W/m2 CLR
13:59 32.6 °F 20.2 °F 1011.1 in SSE 29.6 mph 29.6 mph 48 % 0.0 in 221.0 W/m2 CLR
14:04 32.6 °F 20.1 °F 1010.7 in SE 27.8 mph 27.8 mph 48 % 0.0 in 900.0 W/m2 CLR
14:09 32.8 °F 20.1 °F 1010.7 in East 20.4 mph 20.4 mph 47 % 0.0 in 888.0 W/m2 CLR
14:14 32.8 °F 20.1 °F 1010.7 in ESE 22.2 mph 22.2 mph 47 % 0.0 in 868.0 W/m2 CLR
14:19 33.1 °F 20.2 °F 1010.7 in ESE 29.6 mph 29.6 mph 47 % 0.0 in 898.0 W/m2 CLR
14:24 32.9 °F 20.1 °F 1010.4 in SE 31.5 mph 31.5 mph 47 % 0.0 in 946.0 W/m2 CLR
14:29 33.0 °F 20.6 °F 1010.4 in SE 27.8 mph 27.8 mph 48 % 0.0 in 888.0 W/m2 CLR
14:34 33.0 °F 20.6 °F 1010.4 in ESE 22.2 mph 22.2 mph 48 % 0.0 in 909.0 W/m2 CLR
14:39 33.0 °F 20.6 °F 1010.0 in East 24.1 mph 24.1 mph 48 % 0.0 in 928.0 W/m2 CLR
14:44 32.8 °F 20.7 °F 1010.0 in East 31.5 mph 31.5 mph 49 % 0.0 in 891.0 W/m2 CLR
14:49 32.9 °F 20.8 °F 1010.0 in ESE 33.3 mph 33.3 mph 49 % 0.0 in 932.0 W/m2 CLR
14:54 33.3 °F 20.5 °F 1010.0 in SE 29.6 mph 29.6 mph 47 % 0.0 in 861.0 W/m2 CLR
14:59 33.7 °F 21.2 °F 1010.0 in SE 25.9 mph 25.9 mph 48 % 0.0 in 849.0 W/m2 CLR
15:04 33.7 °F 20.1 °F 1009.7 in ESE 25.9 mph 25.9 mph 45 % 0.0 in 865.0 W/m2 CLR
15:09 33.4 °F 20.2 °F 1009.7 in ESE 24.1 mph 24.1 mph 46 % 0.0 in 842.0 W/m2 CLR
15:14 33.4 °F 20.6 °F 1009.7 in ESE 22.2 mph 22.2 mph 47 % 0.0 in 867.0 W/m2 CLR
15:19 33.3 °F 20.4 °F 1009.7 in East 20.9 mph 20.9 mph 47 % 0.0 in 919.0 W/m2 CLR
15:24 33.0 °F 20.6 °F 1009.4 in East 27.8 mph 27.8 mph 48 % 0.0 in 835.0 W/m2 CLR
15:29 33.1 °F 20.6 °F 1009.4 in ESE 29.6 mph 29.6 mph 48 % 0.0 in 831.0 W/m2 CLR
15:34 32.9 °F 20.5 °F 1009.4 in SE 33.3 mph 33.3 mph 48 % 0.0 in 812.0 W/m2 CLR
15:39 32.7 °F 20.9 °F 1009.4 in ESE 35.2 mph 35.2 mph 50 % 0.0 in 431.0 W/m2 CLR
15:44 32.6 °F 21.2 °F 1009.0 in ESE 22.5 mph 22.5 mph 51 % 0.0 in 782.0 W/m2 CLR
15:49 33.1 °F 21.2 °F 1009.4 in ESE 37.0 mph 37.0 mph 50 % 0.0 in 773.0 W/m2 CLR
15:59 32.4 °F 21.0 °F 1009.0 in ESE 38.6 mph 38.6 mph 51 % 0.0 in 770.0 W/m2 CLR
16:04 32.6 °F 21.2 °F 1009.0 in SE 38.6 mph 38.6 mph 51 % 0.0 in 758.0 W/m2 CLR
16:09 32.7 °F 20.9 °F 1008.7 in ESE 35.2 mph 35.2 mph 50 % 0.0 in 747.0 W/m2 CLR
16:14 33.2 °F 21.1 °F 1008.7 in SE 35.4 mph 35.4 mph 49 % 0.0 in 745.0 W/m2 CLR
16:19 33.2 °F 21.0 °F 1008.7 in SE 24.1 mph 24.1 mph 49 % 0.0 in 735.0 W/m2 CLR
16:24 33.3 °F 20.8 °F 1008.7 in ESE 37.0 mph 37.0 mph 48 % 0.0 in 490.0 W/m2 CLR
16:29 33.0 °F 21.2 °F 1008.7 in SE 33.3 mph 33.3 mph 50 % 0.0 in 742.0 W/m2 CLR
16:34 33.2 °F 21.4 °F 1008.7 in ESE 29.6 mph 29.6 mph 50 % 0.0 in 719.0 W/m2 CLR
16:39 32.9 °F 21.1 °F 1008.7 in SSE 33.3 mph 33.3 mph 50 % 0.0 in 717.0 W/m2 CLR
16:44 32.8 °F 21.3 °F 1008.7 in ESE 35.2 mph 35.2 mph 51 % 0.0 in 650.0 W/m2 CLR
16:49 32.5 °F 21.4 °F 1008.7 in ESE 35.4 mph 35.4 mph 52 % 0.0 in 715.0 W/m2 CLR
16:54 32.3 °F 21.2 °F 1008.7 in SE 31.5 mph 31.5 mph 52 % 0.0 in 701.0 W/m2 CLR
17:00 32.1 °F 21.3 °F 1008.7 in ESE 33.3 mph 33.3 mph 53 % 0.0 in 675.0 W/m2 CLR
17:05 32.3 °F 21.2 °F 1008.7 in SE 32.2 mph 32.2 mph 52 % 0.0 in 657.0 W/m2 CLR
17:10 32.5 °F 21.4 °F 1008.4 in SE 35.2 mph 35.2 mph 52 % 0.0 in 640.0 W/m2 CLR
17:15 32.6 °F 21.2 °F 1008.4 in SE 35.4 mph 35.4 mph 51 % 0.0 in 592.0 W/m2 CLR
17:20 32.3 °F 21.2 °F 1008.4 in ESE 33.3 mph 33.3 mph 52 % 0.0 in 617.0 W/m2 CLR
17:25 32.2 °F 21.4 °F 1008.7 in ESE 37.0 mph 37.0 mph 53 % 0.0 in 506.0 W/m2 CLR
17:30 31.9 °F 21.5 °F 1008.4 in SE 37.0 mph 37.0 mph 54 % 0.0 in 258.0 W/m2 CLR
17:35 31.7 °F 21.3 °F 1008.4 in ESE 35.2 mph 35.2 mph 54 % 0.0 in 274.0 W/m2 CLR
17:40 31.4 °F 21.3 °F 1008.0 in South 27.8 mph 27.8 mph 55 % 0.0 in 265.0 W/m2 CLR
17:45 31.7 °F 21.5 °F 1008.0 in SE 22.2 mph 22.2 mph 55 % 0.0 in 334.0 W/m2 CLR
17:50 31.7 °F 21.6 °F 1008.0 in ESE 31.5 mph 31.5 mph 55 % 0.0 in 466.0 W/m2 CLR
17:55 31.7 °F 21.2 °F 1008.0 in ESE 38.9 mph 38.9 mph 54 % 0.0 in 350.0 W/m2 CLR
18:00 31.8 °F 21.4 °F 1008.4 in SE 22.2 mph 22.7 mph 54 % 0.0 in 489.0 W/m2 CLR
18:05 31.9 °F 21.4 °F 1008.0 in ESE 33.3 mph 33.3 mph 54 % 0.0 in 450.0 W/m2 CLR
18:10 31.6 °F 21.4 °F 1008.0 in SE 22.2 mph 22.8 mph 55 % 0.0 in 427.0 W/m2 CLR
18:15 31.8 °F 21.4 °F 1008.0 in SE 24.1 mph 24.1 mph 54 % 0.0 in 274.0 W/m2 CLR
18:20 32.2 °F 21.1 °F 1008.0 in ESE 19.3 mph 19.3 mph 52 % 0.0 in 283.0 W/m2 CLR
18:25 32.0 °F 21.2 °F 1008.0 in SE 16.7 mph 16.7 mph 53 % 0.0 in 200.0 W/m2 CLR
18:30 31.8 °F 21.3 °F 1008.0 in SE 22.2 mph 22.2 mph 54 % 0.0 in 200.0 W/m2 CLR
18:35 31.8 °F 21.3 °F 1008.0 in SE 24.1 mph 24.1 mph 54 % 0.0 in 241.0 W/m2 CLR
18:40 31.8 °F 21.0 °F 1007.7 in SE 24.1 mph 24.1 mph 53 % 0.0 in 178.0 W/m2 CLR
18:45 31.7 °F 21.2 °F 1008.0 in SSE 20.4 mph 20.4 mph 54 % 0.0 in 158.0 W/m2 CLR
18:50 31.6 °F 21.1 °F 1008.0 in SE 27.4 mph 27.4 mph 54 % 0.0 in 144.0 W/m2 CLR
18:55 31.4 °F 21.0 °F 1007.7 in SSE 20.9 mph 20.9 mph 54 % 0.0 in 141.0 W/m2 CLR
19:00 31.4 °F 21.3 °F 1007.7 in SE 18.5 mph 18.5 mph 55 % 0.0 in 176.0 W/m2 CLR
19:05 31.3 °F 21.4 °F 1007.7 in ESE 20.4 mph 20.4 mph 56 % 0.0 in 251.0 W/m2 CLR
19:10 31.3 °F 21.2 °F 1007.7 in ESE 16.7 mph 16.7 mph 55 % 0.0 in 206.0 W/m2 CLR
19:15 31.3 °F 21.2 °F 1007.7 in SE 18.5 mph 18.5 mph 55 % 0.0 in 204.0 W/m2 CLR
19:20 31.2 °F 21.1 °F 1007.7 in SE 20.9 mph 20.9 mph 55 % 0.0 in 316.0 W/m2 CLR
19:25 31.2 °F 21.4 °F 1007.7 in SE 22.2 mph 22.2 mph 56 % 0.0 in 339.0 W/m2 CLR
19:30 31.1 °F 21.3 °F 1007.7 in East 18.5 mph 18.5 mph 56 % 0.0 in 269.0 W/m2 CLR
19:35 31.1 °F 21.6 °F 1007.7 in ESE 20.4 mph 20.4 mph 57 % 0.0 in 279.0 W/m2 CLR
19:40 30.9 °F 21.4 °F 1007.7 in SSE 20.4 mph 20.4 mph 57 % 0.0 in 229.0 W/m2 CLR
19:45 31.0 °F 21.2 °F 1007.3 in ESE 22.2 mph 22.2 mph 56 % 0.0 in 176.0 W/m2 CLR
19:50 30.9 °F 21.1 °F 1007.7 in SE 17.7 mph 17.7 mph 56 % 0.0 in 137.0 W/m2 CLR
19:55 30.9 °F 21.1 °F 1007.3 in SSE 18.5 mph 18.5 mph 56 % 0.0 in 146.0 W/m2 CLR
20:00 30.9 °F 21.2 °F 1007.3 in SSE 14.8 mph 14.8 mph 56 % 0.0 in 156.0 W/m2 CLR
20:10 31.0 °F 20.9 °F 1007.7 in SE 13.0 mph 13.0 mph 55 % 0.0 in 142.0 W/m2 CLR
20:15 31.0 °F 20.9 °F 1007.7 in ESE 11.3 mph 11.3 mph 55 % 0.0 in 123.0 W/m2 CLR
20:20 30.9 °F 20.8 °F 1007.7 in SE 11.1 mph 11.1 mph 55 % 0.0 in 100.0 W/m2 CLR
20:25 30.8 °F 21.0 °F 1007.7 in SSE 11.1 mph 11.1 mph 56 % 0.0 in 79.0 W/m2 FEW
20:30 30.6 °F 20.8 °F 1007.3 in ESE 16.7 mph 16.7 mph 56 % 0.0 in 70.0 W/m2 FEW
20:35 30.5 °F 20.7 °F 1007.3 in SE 20.4 mph 20.4 mph 56 % 0.0 in 65.0 W/m2 SCT
20:40 30.4 °F 20.9 °F 1007.3 in SE 16.7 mph 16.7 mph 57 % 0.0 in 54.0 W/m2 SCT
20:45 30.3 °F 20.8 °F 1007.3 in SE 16.1 mph 16.1 mph 57 % 0.0 in 42.0 W/m2 BKN
20:50 30.2 °F 20.8 °F 1007.3 in ESE 11.1 mph 11.1 mph 57 % 0.0 in 28.0 W/m2 BKN
20:55 30.1 °F 20.9 °F 1007.3 in ESE 11.3 mph 11.3 mph 58 % 0.0 in 19.0 W/m2 BKN
21:00 30.1 °F 20.6 °F 1007.3 in SSE 19.3 mph 19.3 mph 57 % 0.0 in 14.0 W/m2 BKN
21:05 30.1 °F 20.6 °F 1007.7 in SE 7.4 mph 7.4 mph 57 % 0.0 in 9.0 W/m2 BKN
21:15 29.9 °F 20.4 °F 1007.7 in SSE 27.8 mph 27.8 mph 57 % 0.0 in 0.0 W/m2 OVC
21:20 29.8 °F 20.4 °F 1007.7 in SSE 25.9 mph 25.9 mph 57 % 0.0 in 0.0 W/m2 CLR
21:25 29.7 °F 20.3 °F 1007.7 in SSE 32.2 mph 32.2 mph 57 % 0.0 in 0.0 W/m2 CLR
21:30 29.6 °F 20.4 °F 1007.7 in South 30.6 mph 30.6 mph 58 % 0.0 in 0.0 W/m2 CLR
21:35 29.4 °F 20.6 °F 1007.7 in South 33.3 mph 33.3 mph 59 % 0.0 in 0.0 W/m2 CLR
21:40 29.2 °F 20.4 °F 1007.3 in SSE 35.4 mph 35.4 mph 59 % 0.0 in 0.0 W/m2 CLR
21:45 29.1 °F 20.6 °F 1007.7 in SSE 29.6 mph 29.6 mph 60 % 0.0 in 0.0 W/m2 CLR
21:50 29.1 °F 20.5 °F 1007.7 in South 22.2 mph 22.2 mph 60 % 0.0 in 0.0 W/m2 CLR
21:55 29.0 °F 20.4 °F 1007.7 in SSE 20.4 mph 20.4 mph 60 % 0.0 in 0.0 W/m2 CLR
22:00 29.1 °F 20.5 °F 1007.7 in SSE 14.5 mph 14.5 mph 60 % 0.0 in 0.0 W/m2 CLR
22:05 29.1 °F 20.5 °F 1007.7 in South 16.7 mph 16.7 mph 60 % 0.0 in 0.0 W/m2 CLR
22:10 29.2 °F 20.3 °F 1007.7 in SSE 18.5 mph 18.5 mph 59 % 0.0 in 0.0 W/m2 CLR
22:15 29.2 °F 20.4 °F 1007.7 in South 12.9 mph 12.9 mph 59 % 0.0 in 0.0 W/m2 CLR
22:20 29.3 °F 20.2 °F 1007.7 in South 20.4 mph 20.4 mph 58 % 0.0 in 0.0 W/m2 CLR
22:25 29.4 °F 20.3 °F 1007.7 in South 22.2 mph 22.2 mph 58 % 0.0 in 0.0 W/m2 CLR
22:30 29.4 °F 20.3 °F 1007.7 in SE 20.9 mph 20.9 mph 58 % 0.0 in 0.0 W/m2 CLR
22:35 29.4 °F 20.3 °F 1007.7 in South 20.9 mph 20.9 mph 58 % 0.0 in 0.0 W/m2 CLR
22:40 29.4 °F 20.3 °F 1007.7 in SSE 18.5 mph 18.5 mph 58 % 0.0 in 0.0 W/m2 CLR
22:45 29.5 °F 20.4 °F 1007.7 in SSW 31.5 mph 31.5 mph 58 % 0.0 in 0.0 W/m2 CLR
22:50 29.7 °F 20.5 °F 1007.7 in SSE 24.1 mph 24.1 mph 58 % 0.0 in 0.0 W/m2 CLR
22:55 29.8 °F 20.4 °F 1007.7 in SSW 20.4 mph 20.4 mph 57 % 0.0 in 0.0 W/m2 CLR
23:00 29.9 °F 19.9 °F 1007.7 in South 22.2 mph 22.2 mph 55 % 0.0 in 0.0 W/m2 CLR
23:05 30.1 °F 19.4 °F 1007.3 in South 29.6 mph 29.6 mph 53 % 0.0 in 0.0 W/m2 CLR
23:10 30.3 °F 19.0 °F 1007.3 in South 18.5 mph 18.5 mph 51 % 0.0 in 0.0 W/m2 CLR
23:15 30.3 °F 18.4 °F 1007.3 in South 20.4 mph 20.4 mph 49 % 0.0 in 0.0 W/m2 CLR
23:20 30.4 °F 18.2 °F 1007.3 in SSE 13.0 mph 13.0 mph 48 % 0.0 in 0.0 W/m2 CLR
23:25 30.4 °F 17.8 °F 1007.0 in South 9.3 mph 9.3 mph 47 % 0.0 in 0.0 W/m2 CLR
23:30 30.4 °F 17.8 °F 1007.0 in Calm     47 % 0.0 in 0.0 W/m2 CLR
23:35 30.3 °F 17.7 °F 1007.0 in Calm     47 % 0.0 in 0.0 W/m2 CLR
23:40 30.1 °F 17.6 °F 1007.0 in Calm     47 % 0.0 in 0.0 W/m2 CLR
23:45 30.0 °F 17.8 °F 1006.7 in Calm     48 % 0.0 in 0.0 W/m2 CLR
23:50 29.8 °F 17.6 °F 1006.7 in Calm     48 % 0.0 in 0.0 W/m2 CLR
23:55 29.7 °F 17.2 °F 1006.7 in Calm     47 % 0.0 in 0.0 W/m2 CLR
Lo Temps de Massalio
Compliments of Weather Underground - 1.25 mb